Regional Weather Roundup
Issued by NWS

Home | Current Version | Previous Version | Graphics & Text | Print | Product List | Glossary On
Versions: 1 2 3 4 5 6 7 8 9 10 11 12 13 14 15 16 17 18 19 20 21 22 23 24 25 26 27
000
ASUS45 KBOI 250210
RWRID

IDAHO REGIONAL WEATHER ROUNDUP
NATIONAL WEATHER SERVICE BOISE ID
700 PM MST FRI FEB 24 2017

NOTE: "FAIR" INDICATES FEW OR NO CLOUDS BELOW 12000 FEET
WITH NO SIGNIFICANT WEATHER AND/OR OBSTRUCTIONS TO VISIBILITY

IDZ012-014-250300-
SOUTHWEST IDAHO


CITY           SKY/WX    TMP DP  RH WIND       PRES   REMARKS
BOISE          MOCLDY    35  15  44 NW3       30.14S
CALDWELL       MOCLDY    34  20  56 CALM      30.17R
MOUNTAIN HOME  MOCLDY    31  16  53 NW3       30.14S
$$

IDZ016-017-250300-
SOUTHCENTRAL IDAHO


CITY           SKY/WX    TMP DP  RH WIND       PRES   REMARKS
BURLEY         CLEAR     24  13  62 SW8       30.12R WCI  15
JEROME           N/A    N/A N/A N/A MISG      30.12S
TWIN FALLS     CLEAR     16   8  71 S9        30.12S WCI   4
$$

IDZ019>023-250300-
SOUTHEAST IDAHO


CITY           SKY/WX    TMP DP  RH WIND       PRES   REMARKS
IDAHO FALLS    LGT SNOW  20  18  92 S15       30.09R FOG     WCI   6
POCATELLO      MOCLDY    19  11  70 S9        30.13R WCI   8
REXBURG        CLOUDY    20  17  88 SW13      30.07R WCI   7
$$

IDZ006-010-011-018-031-032-250300-
CENTRAL IDAHO MOUNTAINS


CITY           SKY/WX    TMP DP  RH WIND       PRES   REMARKS
MCCALL         CLOUDY    22   8  55 CALM      30.01R
HAILEY         LGT SNOW  19  16  86 SE9       30.04R WCI   9
STANLEY          N/A     18  10  71 CALM      29.95R
SALMON         CLOUDY    28  19  69 S7        30.00R WCI  21
CHALLIS        CLOUDY    25  18  74 N3        29.98R
$$

IDZ002-004-006-007-026-250300-
NORTHERN IDAHO


CITY           SKY/WX    TMP DP  RH WIND       PRES   REMARKS
LEWISTON       CLEAR     37  17  44 E7        30.16S WCI  32
LOWELL           N/A     33  27  78 CALM      30.19R
COEUR D`ALENE  PTCLDY    27  21  78 SE3       30.15S
MULLAN PASS    PTCLDY    13   8  81 CALM      29.96S
$$




USA.gov is the U.S. government's official web portal to all federal, state and local government web resources and services.